Weather History for Livingston, MT

Change the Weather History Date:

Sunday, February 24, 2013

  Actual Average Record
Temperature  
Mean Temperature 21 °F 31 °F  
Max Temperature 32 °F 42 °F 70 °F (1995)
Min Temperature 10 °F 19 °F -24 °F (2003)
Degree Days  
Heating Degree Days 44 34  
Month to date heating degree days 870  
Since 1 July heating degree days 5211  
Moisture  
Dew Point 11 °F    
Average Humidity 59    
Maximum Humidity 81    
Minimum Humidity 40    
Precipitation  
Precipitation 0.00 in 0.02 in 0.40 in (1996)
Month to date precipitation 0.42  
Year to date precipitation 0.91  
Sea Level Pressure  
Sea Level Pressure 30.19 in    
Wind  
Wind Speed 12 mph (West)    
Max Wind Speed 31 mph    
Max Gust Speed 40 mph    
Visibility 10 miles    
Events      
T = Trace of Precipitation, MM = Missing Value Source: NWS Daily Summary

Daily Weather History Graph

Daily Weather History Graph

Search for Another Location

Airport:

Trip Planner

Search our weather history database for the weather conditions in past years. The results will help you decide how hot, cold, wet, or windy it might be!

Date:

Astronomy

Feb. 24, 2013 Rise Set
Actual Time 7:08 AM MST 6:02 PM MST
Civil Twilight 6:38 AM MST 6:32 PM MST
Nautical Twilight 6:04 AM MST 7:06 PM MST
Astronomical Twilight 5:29 AM MST 7:40 PM MST
Moon 5:16 PM MST (2/24) 6:08 AM MST (2/24)
Length of Visible Light 11h 53m
Length of Day
10h 53m
Waxing Gibbous, 99% of the Moon is Illuminated
Feb 24
Waxing Gibbous
Feb 25
Full
Mar 4
Last Quarter
Mar 11
New
Mar 19
First Quarter

Hourly Weather History & Observations

Time (MST) Temp. Windchill Dew Point Humidity Pressure Visibility Wind Dir Wind Speed Gust Speed Precip Events Conditions
12:53 AM 24.1 °F 17.0 °F 17.1 °F 75% 30.13 in 10.0 mi West 5.8 mph - N/A   Overcast
1:53 AM 23.0 °F 13.9 °F 16.0 °F 74% 30.17 in 10.0 mi WSW 8.1 mph - N/A   Overcast
2:53 AM 19.0 °F 8.2 °F 12.9 °F 77% 30.19 in 10.0 mi WSW 9.2 mph - N/A   Partly Cloudy
3:53 AM 17.1 °F 5.8 °F 12.0 °F 81% 30.20 in - WSW 9.2 mph - N/A   Clear
4:53 AM 16.0 °F 5.3 °F 10.9 °F 81% 30.22 in - WSW 8.1 mph - N/A   Clear
5:53 AM 12.0 °F 1.5 °F 7.0 °F 80% 30.27 in 10.0 mi WNW 6.9 mph - N/A   Clear
6:53 AM 10.9 °F 0.2 °F 6.1 °F 81% 30.30 in 10.0 mi WSW 6.9 mph - N/A   Overcast
7:53 AM 12.0 °F 0.5 °F 7.0 °F 80% 30.30 in 10.0 mi West 8.1 mph - N/A   Clear
8:53 AM 15.1 °F 4.2 °F 8.1 °F 74% 30.29 in 10.0 mi NW 8.1 mph - N/A   Clear
9:53 AM 21.0 °F 14.6 °F 12.0 °F 68% 30.27 in 10.0 mi West 4.6 mph - N/A   Clear
10:53 AM 28.0 °F 15.3 °F 12.9 °F 53% 30.24 in 10.0 mi West 18.4 mph - N/A   Clear
11:53 AM 30.0 °F 16.9 °F 12.9 °F 49% 30.23 in 10.0 mi West 21.9 mph 26.5 mph N/A   Clear
12:53 PM 30.9 °F 18.7 °F 12.0 °F 46% 30.19 in 10.0 mi West 19.6 mph 27.6 mph N/A   Clear
1:53 PM 32.0 °F 20.8 °F 10.9 °F 42% 30.16 in 10.0 mi West 17.3 mph - N/A   Clear
2:53 PM 32.0 °F 20.5 °F 12.9 °F 45% 30.16 in 10.0 mi West 18.4 mph 21.9 mph N/A   Clear
3:53 PM 32.0 °F 18.9 °F 12.0 °F 44% 30.16 in 10.0 mi West 24.2 mph 32.2 mph N/A   Clear
4:53 PM 32.0 °F 19.8 °F 10.0 °F 40% 30.16 in 10.0 mi West 20.7 mph - N/A   Clear
5:53 PM 30.0 °F 19.1 °F 10.0 °F 43% 30.18 in 10.0 mi West 15.0 mph - N/A   Clear
6:53 PM 28.0 °F 17.0 °F 10.9 °F 49% 30.18 in 10.0 mi WSW 13.8 mph - N/A   Clear
7:53 PM 30.0 °F 15.4 °F 10.9 °F 45% 30.16 in 10.0 mi SW 27.6 mph 35.7 mph N/A   Clear
8:53 PM 30.0 °F 14.7 °F 12.0 °F 47% 30.14 in 10.0 mi SW 31.1 mph 39.1 mph N/A   Clear
9:53 PM 28.9 °F 15.1 °F 10.9 °F 47% 30.14 in 10.0 mi WSW 23.0 mph 34.5 mph N/A   Clear
10:53 PM 28.9 °F 14.8 °F 10.0 °F 45% 30.11 in 10.0 mi WSW 24.2 mph 40.3 mph N/A   Clear
11:53 PM 28.0 °F 12.5 °F 10.0 °F 47% 30.10 in 10.0 mi West 28.8 mph 38.0 mph N/A   Clear